Regional Weather Roundup
Issued by NWS Charleston, SC

Current Version | Previous Version | Graphics & Text | Print | Product List | Glossary On
Versions: 1 2 3 4 5 6 7 8 9 10 11 12 13 14 15 16 17 18 19 20 21 22 23 24 25 26 27 28 29 30 31 32 33 34 35 36 37 38 39 40 41 42 43 44 45 46 47 48 49 50
232
ASUS42 KCHS 270412
RWRCHS

REGIONAL WEATHER ROUNDUP
NATIONAL WEATHER SERVICE CHARLESTON SC
1200 AM EDT THU APR 27 2017

NOTE: "FAIR" INDICATES FEW OR NO CLOUDS BELOW 12,000 FEET WITH NO
SIGNIFICANT WEATHER AND/OR OBSTRUCTIONS TO VISIBILITY.

NOT ALL STATIONS ARE QUALITY CONTROLLED. USE DATA WITH CAUTION...
ESPECIALLY DEWPOINT OBSERVATIONS.

SCZ027-030-031-034>040-042>050-270500-
...SOUTHEAST SOUTH CAROLINA...

CITY           SKY/WX    TMP DP  RH WIND       PRES   REMARKS
N CHARLESTON   CLEAR     66  60  81 S8        29.88S
WATERFRONT PRK   N/A     72  65  78 S9        29.87S
JOHNS ISLAND   FAIR      70  64  83 S8        29.89S
PINOPOLIS        N/A     68  61  77 VRB3      29.79R
MONCKS CORNER  FAIR      63  57  82 S3        29.88S
SUMMERVILLE    FAIR      64  61  88 CALM      29.89S
BEAUFORT MCAS  CLEAR     72  66  81 S8        29.87F
BEAUFORT ARPT  FAIR      72  64  78 S8        29.88S
HILTON HEAD IS CLEAR     72  66  83 S9        29.89S
WALTERBORO     CLEAR     63  61  94 CALM      29.89R
ALLENDALE      FAIR      66  61  82 CALM      29.86S

...SOUTHERN MIDLANDS AND PEE DEE...

CITY           SKY/WX    TMP DP  RH WIND       PRES   REMARKS
GEORGETOWN     FAIR      66  63  88 S6        29.90R
KINGSTREE      FAIR      64  55  72 SE5       29.88S
ORANGEBURG     CLEAR     65  60  84 S5        29.88R
BARNWELL       FAIR      68  63  83 SE5       29.87S
AIKEN          FAIR      66  59  77 SE8       29.89S
MANNING        FAIR      68  59  73 S21G32    29.88S
COLUMBIA       CLEAR     71  57  61 S12       29.85R
SUMTER         CLEAR     68  58  72 S7        29.85R
FLORENCE       CLEAR     68  58  70 S10       29.87R
MYRTLE BEACH   NOT AVBL
N MYRTLE BEACH CLEAR     71  62  73 SW16      29.88S

$$

GAZ063-065-086>088-099>101-113>116-118-119-134>141-150-270500-
...SOUTHEAST GEORGIA...

CITY           SKY/WX    TMP DP  RH WIND       PRES   REMARKS
SAVANNAH ARPT  PTCLDY    70  62  76 S9        29.88S
HUNTER AAF     CLEAR     72  67  85 CALM      29.86S
FORT STEWART   CLEAR     66  61  84 CALM      29.86S
STATESBORO     CLEAR     69  63  79 S6        29.87S
SYLVANIA       CLEAR    N/A N/A N/A S5        29.88R
CLAXTON        FAIR      68  68  99 CALM      29.88R

...CSRA...CENTRAL AND FAR SOUTHEAST GEORGIA...

CITY           SKY/WX    TMP DP  RH WIND       PRES   REMARKS
THOMSON        CLOUDY    65  60  85 SW5       29.89S
AUGUSTA-BUSH   PTCLDY    70  63  78 SE7       29.84R
AUGUSTA-DANIEL PTCLDY    72  59  63 SE8       29.86R
SWAINSBORO     MOCLDY    70  63  78 S6        29.88R
VIDALIA        CLEAR     70  57  64 S3        29.87S
EASTMAN        FAIR      70  46  42 S5        29.89R
HAZLEHURST     FAIR      70  57  63 SW6       29.86S
ALMA           MOCLDY    66  55  67 S5        29.87R
WAYCROSS       CLEAR     66  58  76 SW5       29.89R
JESUP          FAIR      66  59  77 CALM      29.89R
BAXLEY         MOCLDY    68  59  73 SE3       29.88R
BRUNSWICK      CLEAR     72  66  83 S10       29.90S
SAINT SIMONS   CLEAR     73  63  70 S16G26    29.89R

$$

SCZ027-028-034-036>038-045-046-048>050-GAZ119-141-270500-
...LAKE AND SUPPLEMENTAL COASTAL OBSERVATIONS...

STATION/POSITION TIME  TEMP    WIND        PRES    WAVE   SWELL
                       AIR SEA DIR/SP/G            HT/PER HT/PER/DIR
                 (UTC) (F)     (DEG/KT/KT) (MB)    (FT/S) (FT/S/D)
WINYAH BAY       NOT AVBL
LAKE MURRAY      0320   72     170/ 13/ 19 1010.2
ACE BASIN NERRS  0245   71     160/  2     1012.0
FORT PULASKI     0348   72 74  200/ 10/ 14 1012.1S
SAPELO ISLAND    0300   73     180/ 14     1012.0

$$

ANZ835-935-AMZ111-154-330-350-352-354-370-450-454-472-270500-
...C-MAN AND BUOY OBSERVATIONS...

STATION/POSITION TIME  TEMP    WIND        PRES    WAVE   SWELL
                       AIR SEA DIR/SP/G            HT/PER HT/PER/DIR
                 (UTC) (F)     (DEG/KT/KT) (MB)    (FT/S) (FT/S/D)
BUOY 41004       0350   74 73  180/ 14/ 19 1011.9F   4/ 9   3/120/ 9
BUOY 41008       0250   73 72  180/ 16/ 19 1011.6    3/ 9   2/110/ 9
FOLLY BEACH CMAN 0400   72     200/ 11/ 14 1012.7R
CAPERS NEARSHORE 0308   76 72  180/ 16/ 19 1011.8R
FRIPP NEARSHORE  0308   72 72  190/ 12/ 16 1011.6R


STATION/POSITION TIME  TEMP    WIND        PRES    WAVE   SWELL
                       AIR SEA DIR/SP/G            HT/PER HT/PER/DIR
                 (UTC) (F)     (DEG/KT/KT) (MB)    (FT/S) (FT/S/D)
5E ST. MARYS GA  0330      73                N/A     3/10   2/120/11
FRYING PAN BUOY  0350   74 73  200/ 12/ 16 1012.4S   4/ 9   3/130/ 9
BUOY 41025       0350   76 76  210/ 17/ 19 1012.1R   6/ 9   5/130/ 9
CAPE LOOKOUT NC  0400   71     210/  8/ 10 1011.8R
BUOY 41002       0350   74 75  190/ 14/ 16 1015.2R   6/ 6   5/ 90/ 9
BUOY 41010       0350   76 78  150/ 10/ 12 1014.6R   4/ 9   3/110/ 9
ST AUGUSTINE FL  0400   71 75  180/  7/  8 1013.9R


$$




USA.gov is the U.S. government's official web portal to all federal, state and local government web resources and services.